EW4767 Weather Reports


time (UTC)temp
C
wind
direction
speed
KPH
gust
KPH
rain 1hr
cm
rain 24hr
cm
rain mn
cm
humidity
%
barometer
mb
20260503180015 10 5 4.8 22.5 0.00 0.00 0.00 41 1009.5
20260503174508 10 65 8.0 19.3 0.00 0.00 0.00 40 1009.6
20260503173007 9 310 9.7 19.3 0.00 0.00 0.00 41 1009.7
20260503171533 8 315 6.4 24.1 0.00 0.00 0.00 42 1009.9
20260503081536 2 293 0.0 4.8 0.00 0.00 0.00 81 1010.1
20260503071516 0 279 3.2 4.8 0.00 0.00 0.00 88 1010.5
20260503054514 0 277 0.0 3.2 0.00 0.00 0.00 86 1011.0
20260503053011 0 277 0.0 3.2 0.00 0.00 0.00 84 1011.2
20260503051509 0 298 0.0 3.2 0.00 0.00 0.00 83 1011.3
20260503050024 1 298 0.0 3.2 0.00 0.00 0.00 81 1011.4
20260503044524 1 287 0.0 3.2 0.00 0.05 0.00 80 1011.5
20260503043020 2 287 0.0 3.2 0.00 0.08 0.00 76 1011.4
20260503041520 2 310 1.6 6.4 0.00 0.08 0.00 75 1011.6
20260503040014 2 279 0.0 4.8 0.00 0.08 0.00 76 1011.8
20260503034512 1 274 1.6 3.2 0.00 0.08 0.08 79 1011.8
20260503033040 2 280 0.0 3.2 0.00 0.08 0.08 74 1011.8
20260503031525 2 258 1.6 4.8 0.00 0.08 0.08 73 1011.8
20260503030022 3 259 0.0 3.2 0.00 0.08 0.08 69 1011.8
20260503024522 4 261 0.0 0.0 0.00 0.08 0.08 67 1011.9
20260503023017 4 287 0.0 4.8 0.00 0.08 0.08 67 1012.2
20260503021514 5 269 1.6 3.2 0.00 0.08 0.08 67 1012.3
20260503020028 5 277 0.0 0.0 0.00 0.08 0.08 66 1012.4
20260503014506 5 277 0.0 3.2 0.00 0.08 0.08 64 1012.4
20260503013007 5 265 1.6 4.8 0.00 0.08 0.08 63 1012.4
20260503011524 6 260 0.0 3.2 0.00 0.08 0.08 59 1012.3
20260503010018 5 260 3.2 9.7 0.00 0.08 0.08 62 1012.3
20260503004547 5 276 1.6 6.4 0.00 0.08 0.08 58 1012.1
20260503003013 6 303 1.6 6.4 0.00 0.08 0.08 55 1012.0
20260503001508 6 306 3.2 16.1 0.00 0.08 0.08 53 1012.0
20260503000008 7 329 4.8 17.7 0.00 0.08 0.08 51 1011.9
20260502234525 7 327 9.7 17.7 0.00 0.08 0.08 50 1011.8
20260502233023 7 293 6.4 19.3 0.00 0.08 0.08 50 1011.7
20260502231518 8 317 6.4 16.1 0.00 0.08 0.08 47 1011.5
20260502230016 8 300 9.7 17.7 0.00 0.08 0.08 45 1011.6
20260502224512 9 275 6.4 20.9 0.00 0.08 0.08 45 1011.4
20260502223013 9 288 6.4 17.7 0.00 0.08 0.08 44 1011.3
20260502221528 10 303 8.0 17.7 0.00 0.08 0.08 43 1011.2
20260502220026 10 267 8.0 24.1 0.00 0.08 0.08 43 1011.2
20260502214522 10 290 9.7 24.1 0.00 0.08 0.08 42 1011.1
20260502213020 10 317 8.0 20.9 0.00 0.08 0.08 40 1011.0
20260502211533 11 324 16.1 32.2 0.00 0.08 0.08 38 1011.0
20260502210017 11 293 16.1 29.0 0.00 0.08 0.08 37 1011.0
20260502204514 11 293 16.1 29.0 0.00 0.08 0.08 40 1011.0
20260502203026 11 321 14.5 30.6 0.00 0.08 0.08 41 1011.0
20260502201525 10 348 11.3 24.1 0.00 0.08 0.08 43 1010.8
20260502200026 10 269 17.7 30.6 0.00 0.08 0.08 42 1011.1
20260502194523 11 266 11.3 27.4 0.00 0.08 0.08 44 1011.2
20260502193018 12 255 6.4 30.6 0.00 0.08 0.08 44 1011.0
20260502191515 12 285 14.5 24.1 0.00 0.08 0.08 43 1011.0
20260502190033 11 279 14.5 24.1 0.00 0.08 0.08 43 1011.1
20260502184545 11 251 6.4 24.1 0.00 0.08 0.08 45 1011.1
20260502183038 11 276 11.3 20.9 0.00 0.08 0.08 46 1010.9
20260502181536 12 225 16.1 32.2 0.00 0.08 0.08 46 1011.1